TimeCDT,TemperatureF,Dew PointF,Humidity,Sea Level PressureIn,VisibilityMPH,Wind Direction,Wind SpeedMPH,Gust SpeedMPH,PrecipitationIn,Events,Conditions,WindDirDegrees,DateUTC
12:11 AM,44.6,39.2,81,29.81,10.0,NNW,13.8,18.4,N/A,,Light Drizzle,340,2012-10-25 05:11:00
12:31 AM,44.6,39.2,81,29.80,10.0,North,10.4,18.4,N/A,,Overcast,350,2012-10-25 05:31:00
12:51 AM,44.6,39.2,81,29.79,10.0,NW,13.8,20.7,N/A,,Overcast,320,2012-10-25 05:51:00
1:11 AM,42.8,39.2,87,29.80,10.0,NNW,15.0,18.4,N/A,,Overcast,330,2012-10-25 06:11:00
1:31 AM,42.8,39.2,87,29.79,10.0,NNW,15.0,23.0,N/A,,Light Drizzle,330,2012-10-25 06:31:00
1:51 AM,42.8,39.2,87,29.78,10.0,NNW,12.7,-,N/A,,Overcast,340,2012-10-25 06:51:00
2:11 AM,42.8,39.2,87,29.76,10.0,NNW,13.8,-,N/A,,Light Drizzle,330,2012-10-25 07:11:00
2:31 AM,42.8,39.2,87,29.75,10.0,NNW,15.0,-,N/A,,Overcast,330,2012-10-25 07:31:00
2:51 AM,42.8,39.2,87,29.77,10.0,NNW,10.4,16.1,N/A,,Overcast,330,2012-10-25 07:51:00
3:11 AM,42.8,37.4,81,29.79,10.0,NW,13.8,-,N/A,,Overcast,320,2012-10-25 08:11:00
3:31 AM,42.8,37.4,81,29.76,7.0,NNW,12.7,-,N/A,,Drizzle,330,2012-10-25 08:31:00
3:51 AM,42.8,39.2,87,29.75,4.0,NNW,15.0,20.7,N/A,,Light Drizzle,330,2012-10-25 08:51:00
4:11 AM,41.0,39.2,93,29.76,4.0,NNW,10.4,-,N/A,,Light Drizzle,340,2012-10-25 09:11:00
4:31 AM,41.0,39.2,93,29.76,4.0,NNW,13.8,18.4,N/A,,Light Drizzle,330,2012-10-25 09:31:00
4:51 AM,41.0,37.4,87,29.73,3.0,NNW,13.8,-,0.01,Rain,Light Rain,340,2012-10-25 09:51:00
5:11 AM,39.2,37.4,93,29.71,4.0,NNW,15.0,-,0.01,Rain-Thunderstorm,Light Thunderstorms and Rain,340,2012-10-25 10:11:00
5:31 AM,39.2,37.4,93,29.76,5.0,NNW,10.4,17.3,0.06,Rain,Rain,330,2012-10-25 10:31:00
5:51 AM,39.2,37.4,93,29.77,5.0,NW,12.7,16.1,0.13,Rain,Rain,310,2012-10-25 10:51:00
6:11 AM,39.2,37.4,93,29.78,7.0,NW,11.5,20.7,0.03,Rain,Rain,310,2012-10-25 11:11:00
6:31 AM,39.2,35.6,87,29.77,10.0,NW,12.7,-,0.06,Rain,Light Rain,320,2012-10-25 11:31:00
7:31 AM,35.6,32.0,87,29.77,7.0,NW,15.0,21.9,0.02,,Drizzle,320,2012-10-25 12:31:00
7:51 AM,33.8,32.0,93,29.77,4.0,NW,15.0,26.5,0.03,Rain,Rain,320,2012-10-25 12:51:00
8:12 AM,33.8,32.0,93,29.76,3.0,NW,15.0,24.2,0.01,Rain,Light Rain,320,2012-10-25 13:12:00
8:31 AM,33.8,32.0,93,29.76,5.0,NW,11.5,-,0.03,Snow,Light Snow,320,2012-10-25 13:31:00
8:51 AM,33.8,32.0,93,29.76,4.0,NW,13.8,-,0.03,Rain,Light Rain,310,2012-10-25 13:51:00
9:11 AM,33.8,32.0,93,29.78,4.0,WNW,12.7,17.3,N/A,,Overcast,300,2012-10-25 14:11:00
9:31 AM,33.8,30.2,87,29.79,3.0,WNW,11.5,-,0.01,Snow,Light Snow,300,2012-10-25 14:31:00
9:51 AM,33.8,32.0,93,29.81,4.0,WNW,9.2,16.1,0.02,Snow,Light Snow,300,2012-10-25 14:51:00
10:31 AM,33.8,32.0,93,29.82,2.0,WNW,15.0,25.3,0.01,Snow,Light Snow,300,2012-10-25 15:31:00
10:51 AM,33.8,30.2,87,29.83,1.5,WNW,13.8,-,0.02,Snow,Light Snow,300,2012-10-25 15:51:00
11:11 AM,33.8,30.2,87,29.84,2.5,WNW,15.0,21.9,N/A,Snow,Light Snow,290,2012-10-25 16:11:00
11:31 AM,33.8,30.2,87,29.85,2.0,WNW,13.8,21.9,0.01,Snow,Light Snow,300,2012-10-25 16:31:00
11:51 AM,33.8,30.2,87,29.85,1.8,WNW,13.8,20.7,0.01,Snow,Light Snow,300,2012-10-25 16:51:00
12:11 PM,32.0,30.2,93,29.85,1.0,WNW,15.0,19.6,0.01,Snow,Light Snow,290,2012-10-25 17:11:00
12:31 PM,33.8,30.2,87,29.86,1.2,WNW,15.0,20.7,0.01,Snow,Light Snow,290,2012-10-25 17:31:00
12:51 PM,33.8,30.2,87,29.86,0.8,WNW,10.4,21.9,0.01,Snow,Light Snow,300,2012-10-25 17:51:00
1:11 PM,33.8,30.2,87,29.86,1.2,WNW,11.5,16.1,0.01,Snow,Light Snow,300,2012-10-25 18:11:00
1:31 PM,33.8,32.0,93,29.87,7.0,WNW,11.5,16.1,0.01,Snow,Light Snow,300,2012-10-25 18:31:00
1:51 PM,35.6,30.2,81,29.87,10.0,WNW,12.7,20.7,0.01,,Scattered Clouds,300,2012-10-25 18:51:00
2:11 PM,35.6,30.2,81,29.89,10.0,WNW,16.1,21.9,N/A,,Mostly Cloudy,290,2012-10-25 19:11:00
2:31 PM,35.6,30.2,81,29.90,10.0,WNW,13.8,20.7,N/A,,Mostly Cloudy,290,2012-10-25 19:31:00
3:11 PM,35.6,30.2,81,29.91,10.0,WNW,16.1,20.7,N/A,,Overcast,290,2012-10-25 20:11:00
3:31 PM,37.4,30.2,75,29.92,10.0,WNW,13.8,17.3,N/A,,Overcast,290,2012-10-25 20:31:00
3:51 PM,37.4,32.0,81,29.91,10.0,WNW,15.0,20.7,N/A,,Overcast,290,2012-10-25 20:51:00
4:11 PM,37.4,30.2,75,29.92,10.0,West,11.5,-,N/A,,Overcast,280,2012-10-25 21:11:00
4:31 PM,37.4,30.2,75,29.93,10.0,WNW,15.0,18.4,N/A,,Overcast,290,2012-10-25 21:31:00
4:51 PM,37.4,30.2,75,29.94,10.0,WNW,13.8,21.9,N/A,,Overcast,290,2012-10-25 21:51:00
5:31 PM,37.4,28.4,70,29.97,10.0,West,15.0,20.7,N/A,,Overcast,280,2012-10-25 22:31:00
5:51 PM,37.4,28.4,70,29.98,10.0,West,18.4,23.0,N/A,,Overcast,280,2012-10-25 22:51:00
6:11 PM,37.4,26.6,65,30.00,10.0,West,15.0,23.0,N/A,,Overcast,270,2012-10-25 23:11:00
6:31 PM,35.6,28.4,75,30.01,10.0,West,11.5,19.6,N/A,,Overcast,280,2012-10-25 23:31:00
6:51 PM,35.6,26.6,70,30.02,10.0,West,11.5,17.3,N/A,,Overcast,270,2012-10-25 23:51:00
7:11 PM,35.6,26.6,70,30.03,10.0,West,9.2,17.3,N/A,,Overcast,270,2012-10-26 00:11:00
7:31 PM,35.6,26.6,70,30.04,10.0,WSW,8.1,-,N/A,,Overcast,250,2012-10-26 00:31:00
7:51 PM,35.6,26.6,70,30.05,10.0,West,8.1,-,N/A,,Overcast,260,2012-10-26 00:51:00
8:31 PM,35.6,26.6,70,30.06,10.0,WSW,9.2,-,N/A,,Overcast,250,2012-10-26 01:31:00
8:52 PM,35.6,26.6,70,30.07,10.0,West,9.2,-,N/A,,Overcast,260,2012-10-26 01:52:00
9:11 PM,35.6,26.6,70,30.07,10.0,West,11.5,-,N/A,,Overcast,260,2012-10-26 02:11:00
9:31 PM,35.6,26.6,70,30.07,10.0,West,10.4,-,N/A,,Overcast,260,2012-10-26 02:31:00
9:51 PM,37.4,26.6,65,30.08,10.0,West,13.8,18.4,N/A,,Overcast,260,2012-10-26 02:51:00
10:51 PM,35.6,24.8,65,30.10,10.0,West,9.2,-,N/A,,Overcast,260,2012-10-26 03:51:00
11:12 PM,35.6,24.8,65,30.10,10.0,West,8.1,-,N/A,,Overcast,260,2012-10-26 04:12:00
11:31 PM,35.6,24.8,65,30.11,10.0,West,8.1,16.1,N/A,,Overcast,260,2012-10-26 04:31:00